Flag for Norway Weather past 2 weeks in Kopervik, Norway

Now
43 °F

Rain. Overcast.


Feels Like: 33 °F
Forecast: 41 / 46 °F
Wind: 24 mph from South

Location: Haugesund / Karmoy

Current Time: Mar 7, 2015 at 5:55:18 AM

Latest Report: Mar 7, 2015 at 5:20 AM


Visibility: 3 mi

Pressure: 29.71 "Hg

Humidity: 93%

Dew point: 41 °F

Location of KopervikLocation

Historic Weather in Kopervik — Graph

°F

Kopervik temperature yesterday

Maximum temperature yesterday: 46 °F (at 12:20 PM)
Minimum temperature yesterday: 41 °F (at 7:20 AM)
Average temperature yesterday: 43 °F

Past Weeks' High & Low Weather Summary

 TemperatureHumidityPressure
High46 °F (Mar 6, 12:20 PM)100% (Feb 21, 12:20 AM)30.30 "Hg (Feb 21, 12:20 AM)
Low32 °F (Mar 3, 3:20 AM)48% (Feb 22, 12:50 PM)28.62 "Hg (Feb 23, 6:20 AM)
Average40 °F86%29.48 "Hg
* Reported Feb 20 4:20 AM — Mar 7 4:20 AM, Kopervik, Weather by CustomWeather, © 2015

Note: Actual official high and low records may vary slightly from our data, if they occured in-between our weather recording intervals... More about our weather records

Advertising

Kopervik weather history for previous 24 hours

 ConditionsComfort  
Time TempWeatherWind HumidityBarometerVisibility
4:20 AM
Sat, Mar 7
43 °FRain. Overcast.26 mph93%29.74 "Hg3 mi
3:50 AM45 °FLight rain. Passing clouds.30 mph87%29.74 "Hg4 mi
3:20 AM45 °FLight rain. Partly cloudy.29 mph87%29.77 "Hg4 mi
2:50 AM45 °FSprinkles. Passing clouds.31 mph87%29.77 "Hg5 mi
2:20 AM43 °FSprinkles. Mostly cloudy.29 mph93%29.77 "Hg4 mi
1:50 AM43 °FLight rain. Mostly cloudy.26 mph93%29.80 "Hg4 mi
1:20 AM43 °FSprinkles. Mostly cloudy.28 mph93%29.83 "Hg4 mi
12:50 AM43 °FSprinkles. Passing clouds.25 mph87%29.86 "Hg5 mi
12:20 AM43 °FPartly cloudy.26 mph93%29.89 "Hg5 mi
11:50 PM
Fri, Mar 6
43 °FSprinkles. Partly cloudy.23 mph93%29.89 "Hg5 mi
11:20 PM43 °FLight rain. Mostly cloudy.24 mph93%29.92 "Hg4 mi
10:50 PM43 °FRain. Passing clouds.26 mph93%29.95 "Hg4 mi
10:20 PM43 °FLight rain. Passing clouds.26 mph93%29.95 "Hg4 mi
9:50 PM43 °FLight rain. Partly cloudy.26 mph93%29.98 "Hg4 mi
9:20 PM43 °FPartly cloudy.26 mph93%30.01 "HgN/A
8:50 PM45 °FPartly cloudy.23 mph87%30.01 "Hg6 mi
8:20 PM43 °FSprinkles. Partly cloudy.22 mph93%30.01 "Hg6 mi
7:50 PM43 °FSprinkles. Partly cloudy.22 mph93%30.04 "Hg6 mi
7:20 PM43 °FLight rain. Passing clouds.20 mph93%30.04 "Hg5 mi
6:50 PM43 °FPassing clouds.21 mph93%30.07 "Hg6 mi
6:20 PM43 °FPartly cloudy.20 mph93%30.07 "Hg6 mi
5:50 PM43 °FScattered showers. Broken clouds.21 mph100%30.09 "Hg6 mi
5:20 PM43 °FBroken clouds.21 mph100%30.09 "HgN/A
4:50 PM43 °FPartly sunny.18 mph100%30.09 "HgN/A
4:20 PM43 °FLight rain. Partly sunny.18 mph93%30.09 "Hg4 mi
3:50 PM43 °FRain. Fog.18 mph93%30.09 "Hg2 mi
3:20 PM43 °FDrizzle. Low clouds.18 mph93%30.12 "Hg4 mi
2:50 PM43 °FDrizzle. Low clouds.17 mph100%30.12 "Hg3 mi
2:20 PM45 °FDrizzle. Partly sunny.16 mph93%30.12 "Hg6 mi
1:50 PM45 °FSprinkles. Partly sunny.16 mph93%30.15 "HgN/A
1:20 PM45 °FBroken clouds.10 mph87%30.18 "HgN/A
12:50 PM46 °FBroken clouds.10 mph82%30.18 "Hg6 mi
12:20 PM46 °FBroken clouds.9 mph87%30.18 "HgN/A
11:50 AM45 °FBroken clouds.9 mph93%30.18 "HgN/A
11:20 AM45 °FPartly sunny.8 mph93%30.18 "Hg6 mi
10:50 AM45 °FPartly sunny.8 mph93%30.21 "Hg5 mi
10:20 AM45 °FPartly sunny.7 mph93%30.18 "Hg4 mi
9:50 AM45 °FScattered clouds.8 mph93%30.18 "Hg4 mi
9:20 AM43 °FScattered clouds.7 mph93%30.18 "Hg3 mi
8:50 AM43 °FClear.6 mph93%30.18 "Hg4 mi
8:20 AM41 °FPassing clouds.8 mph93%30.18 "Hg6 mi
7:50 AM43 °FScattered clouds.8 mph93%30.18 "Hg5 mi
7:20 AM41 °FPassing clouds.10 mph100%30.18 "Hg6 mi
6:50 AM43 °FPassing clouds.10 mph93%30.18 "Hg6 mi
6:20 AM43 °FPartly cloudy.12 mph93%30.18 "Hg6 mi
5:50 AM43 °FFog.9 mph93%30.18 "Hg6 mi
5:20 AM43 °FFog.9 mph93%30.18 "Hg4 mi
Weather by CustomWeather, © 2015

See weather overviewHow to use our weather pages